Location: Unspecified
(41.5000°N, 0.0000°E)
Time: 11:35:07
(UTC+00:00)

Vanguard 2 - Pass Details

Date: 21 June 2019
Orbit: 553 x 2938 km, 32.9° (Epoch: 22 July)

Event Time Altitude Azimuth Distance (km) Brightness Sun altitude
Rises 13:55:38 0° 271° (W) 4,725 11.9 60.2°
Reaches altitude 10° 13:58:50 10° 261° (W) 4,058 11.8 59.7°
Maximum altitude 14:08:25 31° 205° (SSW) 3,439 11.8 58.0°
Drops below altitude 10° 14:21:35 10° 151° (SSE) 5,588 12.0 55.8°
Sets 14:27:02 0° 143° (SE) 6,743 12.2 54.8°
